#timestamp,LO_Frequency,Hit,StdDev 
1560438015.2,286046995.0,N
1560438035.0,286046997.8,N
1560438035.9,286046997.8,N
1560438055.8,286046997.8,N
1560438075.6,286046997.7,N
1560438095.4,286046999.1,N
1560438115.3,286046999.0,N
1560438135.1,286046998.5,N
1560438155.8,286046998.8,N
1560438175.7,286047000.3,N
1560438195.5,286047001.2,N
1560438215.3,286046999.5,N
1560438235.2,286046997.2,N
1560438255.0,286046997.2,N
1560438255.9,286046997.2,N
1560438275.7,286046996.5,N
1560438295.6,286046997.7,N
1560438315.4,286046997.8,N
1560438335.2,286046996.5,N
1560438355.1,286046997.6,N
1560438356.0,286046997.6,N
1560438375.8,286046996.3,N
1560438395.7,286046994.2,Y
1560438415.5,286046997.3,P
1560438435.3,286046995.4,P
1560438455.2,286046993.8,P
1560438475.9,286046995.9,N
1560438495.7,286046993.4,Y
1560438515.6,286046997.4,P
1560438535.4,286046997.7,P
1560438555.2,286046997.4,P
1560438575.1,286046996.7,Y
1560438576.0,286046996.7,P
1560438595.8,286047002.6,P
1560438615.6,286047004.1,N
1560438635.5,286047003.9,N
1560438655.3,286047003.6,N
1560438675.1,286047003.5,N
1560438695.9,286047004.0,N
1560438715.7,286047004.0,N
1560438735.5,286047001.7,N
1560438755.4,286047002.5,N
1560438775.2,286046999.7,N
1560438795.0,286046999.9,N
1560438795.9,286046999.9,N
1560438815.8,286047002.1,N
1560438835.6,286047004.4,N
1560438855.4,286047003.5,N
1560438875.3,286047003.0,N
1560438895.1,286047003.4,N
1560438896.0,286047003.4,N
1560438915.8,286047005.9,N
1560438935.7,286047004.4,N
1560438955.5,286047001.8,N
1560438975.3,286047000.2,N
1560438995.2,286047002.8,N
1560439015.9,286047000.7,N
1560439035.7,286046998.1,N
1560439055.6,286046999.2,N
1560439075.4,286046995.3,N
1560439095.2,286046995.4,N
1560439115.1,286046996.3,N
1560439116.0,286046996.3,N
1560439135.8,286046993.8,N
1560439155.6,286046993.8,N
1560439175.5,286046993.8,N
1560439195.3,286046995.5,N
1560439215.1,286046993.7,N
1560439235.9,286046994.2,N
1560439255.7,286046994.0,N
1560439275.5,286046995.9,N
1560439295.4,286046995.9,N
1560439315.2,286046996.2,N
1560439335.0,286046993.9,N
1560439335.9,286046993.9,N
1560439355.8,286046994.3,N
1560439375.6,286046994.4,N
1560439395.4,286046993.6,N
1560439415.3,286046994.0,N
1560439435.1,286046993.8,N
1560439455.8,286046994.9,N
1560439475.7,286046997.7,N
1560439495.5,286046997.3,N
1560439515.3,286046996.9,N
1560439535.2,286046997.0,N
1560439555.0,286046994.9,N
1560439555.9,286046994.9,N
1560439575.7,286046995.7,N
1560439595.6,286046995.7,Y
1560439615.4,286046999.7,P
1560439635.2,286047001.5,N
1560439655.1,286047002.0,N
1560439656.0,286047002.0,N
1560439675.8,286047000.2,N
1560439695.6,286047002.2,N
1560439715.5,286047002.0,N
1560439735.3,286046999.8,N
1560439755.1,286046998.2,N
1560439775.9,286046999.2,N
1560439795.7,286047000.8,N
1560439815.5,286047002.3,N
1560439835.4,286046999.7,N
1560439855.2,286047002.0,N
1560439875.0,286047000.1,N
1560439875.9,286047000.1,N
1560439895.8,286047000.0,N
1560439915.6,286047002.3,N
1560439935.4,286047002.5,N
1560439955.3,286046998.8,N
1560439975.1,286046998.6,N
1560439995.8,286046998.3,N
1560440015.7,286046998.8,N
1560440035.5,286046998.8,N
1560440055.3,286046998.1,N
1560440075.2,286046998.1,N
1560440095.0,286046998.3,N
1560440095.9,286046998.3,N
1560440115.7,286046998.8,N
1560440135.6,286046998.3,N
1560440155.4,286046999.6,N
1560440175.2,286046999.0,N
1560440195.1,286046996.6,N
1560440196.0,286046996.6,N
1560440215.8,286046996.6,N
1560440235.6,286046997.1,N
1560440255.5,286047011.9,Y
1560440275.3,286046996.8,P
1560440295.1,286046997.8,N
1560440315.9,286046999.0,N
1560440335.7,286046998.9,N
1560440355.6,286046996.9,Y
1560440375.4,286046998.3,P
1560440395.2,286047001.0,P
1560440415.1,286047000.5,N
1560440416.0,286047000.5,N
1560440435.8,286046998.7,N
1560440455.6,286046999.4,N
1560440475.5,286046999.2,N
1560440495.3,286046998.7,N
1560440515.1,286046999.5,N
1560440535.9,286046997.2,Y
1560440555.7,286046997.1,P
1560440575.5,286046999.6,N
1560440595.4,286046998.2,N
1560440615.2,286047000.5,N
1560440635.0,286047002.7,N
1560440635.9,286047002.7,N
1560440655.8,286047000.3,N
1560440675.6,286047000.3,N
1560440695.4,286047001.5,N
1560440715.3,286047001.5,N
1560440735.1,286047001.7,N
1560440736.0,286047001.7,N
1560440755.8,286047004.3,N
1560440775.7,286047003.9,N
1560440795.5,286047003.0,N
1560440815.3,286047004.1,N
1560440835.2,286047002.0,N
1560440855.9,286047002.1,N
1560440875.7,286047002.7,N
1560440895.6,286047002.6,N
1560440915.4,286047002.6,N
1560440935.2,286047002.2,N
1560440955.1,286047001.9,N
1560440956.0,286047001.9,N
1560440975.8,286047002.2,N
1560440995.6,286047001.9,N
1560441015.5,286047002.7,N
1560441035.3,286047002.4,N
1560441055.1,286047002.8,N
1560441075.9,286047002.7,N
1560441095.7,286047002.0,N
1560441115.5,286047002.6,N
1560441135.4,286047000.3,N
1560441155.2,286047002.7,N
1560441175.0,286047002.3,N
1560441175.9,286047002.3,N
1560441195.8,286047000.6,N
1560441215.6,286047000.8,N
1560441235.4,286047000.2,N
1560441255.3,286047001.5,N
1560441275.1,286047000.2,N
1560441276.0,286047000.2,N
1560441295.8,286047000.9,N
1560441315.7,286047000.7,N
1560441335.5,286046998.7,N
1560441355.3,286046998.6,N
1560441375.2,286046998.3,N
1560441395.9,286046998.9,N
1560441415.7,286046998.5,N
1560441435.6,286047001.2,N
1560441455.4,286046996.6,N
1560441475.2,286046996.8,N
1560441495.1,286046996.6,N
1560441526.0,286046995.6,E
1560441535.0,286046996.8,N
1560441535.9,286046996.8,P
1560441555.7,286047001.1,P
1560441575.6,286047000.7,N
1560441595.4,286046998.8,N
